CARTOSAT-2C

Last updated on Wed Oct 29 2025 00:02:31 GMT+0000 (Coordinated Universal Time)

1 41599U 16040A 25301.74525755 .00006342 00000+0 30425-3 0 9991 2 41599 97.4828 359.4408 0010669 218.4324 141.6152 15.19188567518574
UTC large
Height (km)
Speed (km/s)
/
Latitude / Longitude
Inclination (degrees)
Orbital Period (minutes)
Azimuth
Elevation
Range (km)
Doppler Factor

Next 0 passes for location: London (51.5072 / 0.1276)

Sorry there are no passes over London.